TimeCDT,TemperatureF,Dew PointF,Humidity,Sea Level PressureIn,VisibilityMPH,Wind Direction,Wind SpeedMPH,Gust SpeedMPH,PrecipitationIn,Events,Conditions,WindDirDegrees,DateUTC
12:54 AM,45.0,41.0,86,30.31,10.0,Calm,Calm,-,N/A,,Clear,0,2012-09-14 05:54:00
1:54 AM,44.1,41.0,89,30.31,10.0,East,3.5,-,N/A,,Clear,90,2012-09-14 06:54:00
2:54 AM,44.1,42.1,93,30.31,10.0,Calm,Calm,-,N/A,,Clear,0,2012-09-14 07:54:00
3:54 AM,46.0,43.0,89,30.32,10.0,West,3.5,-,N/A,,Clear,260,2012-09-14 08:54:00
4:54 AM,46.9,42.1,83,30.33,10.0,NW,6.9,-,N/A,,Overcast,310,2012-09-14 09:54:00
5:54 AM,45.0,41.0,86,30.32,10.0,Calm,Calm,-,N/A,,Clear,0,2012-09-14 10:54:00
6:54 AM,43.0,39.9,89,30.32,10.0,Calm,Calm,-,N/A,,Clear,0,2012-09-14 11:54:00
7:54 AM,48.9,43.0,80,30.32,10.0,NW,3.5,-,N/A,,Clear,320,2012-09-14 12:54:00
8:54 AM,55.0,41.0,59,30.34,10.0,North,4.6,-,N/A,,Clear,350,2012-09-14 13:54:00
9:54 AM,61.0,39.0,44,30.33,10.0,Calm,Calm,-,N/A,,Clear,0,2012-09-14 14:54:00
10:54 AM,63.0,37.0,38,30.34,10.0,Calm,Calm,-,N/A,,Clear,0,2012-09-14 15:54:00
11:54 AM,66.0,36.0,33,30.33,10.0,NNW,10.4,-,N/A,,Clear,340,2012-09-14 16:54:00
12:54 PM,66.9,37.0,33,30.32,10.0,WNW,8.1,16.1,N/A,,Clear,290,2012-09-14 17:54:00
1:54 PM,69.1,35.1,29,30.30,10.0,West,9.2,-,N/A,,Clear,270,2012-09-14 18:54:00
2:54 PM,70.0,34.0,27,30.29,10.0,West,5.8,-,N/A,,Clear,270,2012-09-14 19:54:00
3:54 PM,70.0,33.1,26,30.29,10.0,WNW,9.2,17.3,N/A,,Clear,290,2012-09-14 20:54:00
4:54 PM,71.1,34.0,26,30.28,10.0,WNW,5.8,-,N/A,,Clear,290,2012-09-14 21:54:00
5:54 PM,69.1,34.0,27,30.28,10.0,WNW,6.9,-,N/A,,Clear,290,2012-09-14 22:54:00
6:54 PM,66.9,34.0,30,30.29,10.0,NNW,4.6,-,N/A,,Clear,330,2012-09-14 23:54:00
7:54 PM,60.1,36.0,41,30.30,8.0,Calm,Calm,-,N/A,,Clear,0,2012-09-15 00:54:00
8:54 PM,55.0,39.9,57,30.31,10.0,Calm,Calm,-,N/A,,Clear,0,2012-09-15 01:54:00
9:54 PM,51.1,41.0,68,30.32,10.0,Calm,Calm,-,N/A,,Clear,0,2012-09-15 02:54:00
10:54 PM,48.9,43.0,80,30.32,10.0,NNW,3.5,-,N/A,,Clear,340,2012-09-15 03:54:00
11:54 PM,48.9,43.0,80,30.34,10.0,Calm,Calm,-,N/A,,Clear,0,2012-09-15 04:54:00